User: anonymous   Login
Location: Ladysmith
(45.4630°N, 91.1040°W)
Time: 12:11:59
(UTC-05:00)
Language:

SO-67 - Orbit

View from above orbital plane
View from above orbital plane
View from above satellite
View from above satellite

Ground track
Ground track

The orbit data is extracted from the following two-line orbital elements,

1 35870U 09049F   15116.15960691  .00020195  00000-0  49492-3 0  9994
2 35870 097.1389 133.6376 0003492 075.7444 349.4328 15.40759096312106
Epoch (UTC): 26 April 2015 03:49:50
Eccentricity: 0.0003492
inclination: 97.1389°
perigee height: 441 km
apogee height: 446 km
right ascension of ascending node: 133.6376°
argument of perigee: 75.7444°
revolutions per day: 15.40759096
mean anomaly at epoch: 349.4328°
orbit number at epoch: 31210

The dashed part of the orbit path shows where the satellite is in the earth's shadow,  

DLR